CAPE
265 66 0 0 0 3 222 486 808 1305 1548 1572 1670 1543 1417 1168 1260 1249 1053 866 836 995
1 0 0 0 3 152 402 636 1164 1580 1699 1606 1540 1470 1107 1123 1197 1047 748 611 624 508
0 0 0 0 235 543 772 1073 1423 1627 1580 1475 1384 1024 1051 1033 1024 821 714 602 549 481
0 0 64 324 446 702 1020 1241 1472 1511 1563 1487 1270 915 1024 888 955 877 761 616 444 287
186 295 472 775 949 1073 1215 1422 1552 1521 1490 1406 870 841 948 890 918 841 496 314 221 150
908 905 914 912 973 1136 1451 1618 1622 1825 1455 846 829 846 926 910 591 414 379 320 128 74
1189 1169 1259 1502 1788 1978 1597 1583 1237 863 888 926 850 885 540 355 201 221 223 171 70 29
1524 1616 1828 2282 1794 1078 921 919 999 1105 1036 1009 861 534 291 54 90 135 168 203 172 133
1732 1761 1976 1440 1119 1221 1048 1162 1025 878 708 606 290 87 37 45 87 190 211 211 181 130
1711 1630 1434 1429 1438 1189 777 558 463 386 269 155 95 156 201 223 205 169 182 156 112 53
1209 1338 1291 1057 898 799 682 253 32 11 50 87 110 93 73 43 21 18 6 40 42 21
1005 1179 966 818 732 319 82 0 32 58 17 12 1 9 25 38 27 0 0 11 0 22
746 594 579 317 99 10 7 67 32 9 3 0 0 0 27 39 12 24 43 18 10 6
355 226 7 10 26 58 79 28 6 0 0 0 0 0 1 32 49 44 42 42 24 29
CIN
-146 -220 -0 -0 -0 -118 -414 -301 -293 -168 -69 -59 -30 -33 -22 -52 -39 -27 -20 -18 -20 -2
-24 -0 -0 -0 -81 -512 -344 -270 -165 -84 -47 -32 -29 -25 -58 -49 -33 -20 -27 -29 -22 -19
-0 -0 -0 -0 -499 -310 -230 -139 -103 -57 -29 -29 -16 -66 -52 -42 -16 -22 -19 -42 -10 -21
-0 -0 -648 -492 -375 -226 -139 -100 -80 -37 -4 -6 -22 -70 -27 -29 -3 -2 -17 -10 -9 -31
-601 -523 -423 -294 -184 -137 -101 -58 -29 -9 -4 -2 -61 -56 -10 -10 -1 -8 -11 -49 -55 -58
-340 -272 -230 -186 -159 -100 -48 -25 -7 -0 -4 -64 -40 -18 -11 -3 -2 -8 -34 -23 -64 -67
-251 -201 -154 -72 -12 -7 -25 -8 -19 -68 -39 -22 -15 -10 -20 -40 -67 -48 -42 -29 -34 -31
-174 -91 -31 -3 -9 -67 -88 -74 -35 -11 -9 -6 -7 -16 -43 -121 -81 -54 -29 -17 -13 -17
-62 -39 -17 -23 -29 -21 -21 -17 -9 -0 -11 -8 -22 -74 -125 -103 -35 -16 -15 -11 -13 -20
-34 -16 -10 -14 -9 -12 -23 -52 -42 -23 -26 -50 -68 -51 -30 -22 -24 -32 -21 -18 -21 -14
-28 -13 -5 -2 -11 -3 -6 -33 -36 -169 -127 -100 -69 -35 -24 -55 -76 -35 -20 -39 -29 -21
-14 -0 -0 -0 -2 -22 -114 -0 -146 -121 -51 -45 -27 -133 -69 -54 -40 -0 -0 -53 -0 -7
-13 -7 -17 -28 -73 -158 -104 -110 -149 -23 -12 -0 -0 -0 -43 -42 -56 -47 -42 -56 -24 -67
-25 -40 -65 -42 -107 -156 -104 -168 -22 -0 -0 -0 -0 -0 -13 -41 -28 -21 -41 -22 -37 -24
Wind_Speed
36 nan nan nan nan nan 39 34 35 37 35 36 35 34 38 34 34 34 33 32 30 28
nan nan nan nan nan 40 37 35 35 35 37 35 33 36 34 34 35 32 33 31 31 27
nan nan nan nan 37 35 34 35 35 37 36 33 32 35 35 35 32 33 30 30 29 27
nan nan nan 36 36 33 33 34 35 36 33 33 33 34 35 31 31 31 30 28 28 27
44 43 40 37 33 33 33 33 36 33 33 34 34 34 31 30 30 31 29 28 30 26
43 41 39 36 33 33 33 33 32 32 33 35 34 30 30 32 30 28 28 29 27 nan
38 38 37 36 31 31 32 32 31 31 34 33 30 31 32 32 30 29 29 28 nan nan
42 38 33 31 32 32 31 30 32 34 31 30 31 30 30 nan nan 28 23 21 21 18
40 33 29 31 32 32 30 32 33 30 30 29 24 nan nan nan nan 20 18 19 17 19
32 31 31 31 33 33 31 32 29 29 26 24 nan 24 25 23 19 19 18 22 23 nan
32 35 33 30 30 31 29 28 nan nan nan nan 21 nan nan nan nan nan nan nan nan nan
32 28 27 30 29 29 nan nan nan nan nan nan nan nan nan nan nan nan nan nan nan nan
25 26 28 28 nan nan nan nan nan nan nan nan nan nan nan nan nan nan nan nan nan nan
26 27 nan nan nan nan nan nan nan nan nan nan nan nan nan nan nan nan nan nan nan nan
Wind_Direction
269 nan nan nan nan nan 265 268 275 280 286 286 286 284 284 286 284 289 287 291 294 294
nan nan nan nan nan 262 267 268 276 282 280 282 284 283 286 283 285 288 286 291 294 291
nan nan nan nan 264 269 269 276 281 276 279 280 281 282 282 279 282 286 286 286 293 290
nan nan nan 259 265 270 271 275 272 274 276 278 278 281 278 282 285 285 284 284 293 295
250 255 256 260 266 270 267 265 271 277 276 277 282 277 279 281 281 285 289 292 293 293
252 253 256 263 269 266 264 267 268 269 274 280 275 274 276 278 283 289 290 288 293 nan
249 249 254 261 266 259 261 264 267 271 276 272 273 274 275 280 286 285 284 287 nan nan
241 245 252 257 252 255 259 262 268 269 258 261 271 277 284 nan nan 284 283 280 281 285
239 243 242 248 253 258 258 263 262 251 258 270 271 nan nan nan nan 282 282 282 281 283
236 238 242 247 256 256 257 249 246 252 264 265 nan 275 285 279 269 281 281 283 281 nan
231 233 238 247 250 254 244 246 nan nan nan nan 265 nan nan nan nan nan nan nan nan nan
231 238 242 243 250 241 nan nan nan nan nan nan nan nan nan nan nan nan nan nan nan nan
228 232 240 247 nan nan nan nan nan nan nan nan nan nan nan nan nan nan nan nan nan nan
223 231 nan nan nan nan nan nan nan nan nan nan nan nan nan nan nan nan nan nan nan nan